Location: Namasale
(1.5000°N, 32.6167°E)
Time: 01:28:27
(UTC+00:00)

Transit 4A - All Passes

Search period start: 21 April 2021 00:00
Search period end: 01 May 2021 00:00
Orbit: 869 x 975 km, 66.8° (Epoch: 20 April)

Date Brightness Start Highest point End Pass type
(mag) Time Alt. Az. Time Alt. Az. Time Alt. Az.
21 Apr - 06:47:34 10° N 06:52:48 35° ENE 06:58:04 10° SE daylight
21 Apr - 08:35:13 10° WNW 08:38:51 17° WSW 08:42:33 10° SSW daylight
21 Apr - 18:02:42 10° SE 18:05:23 13° ESE 18:08:03 10° E night (unlit)
21 Apr - 19:45:18 10° SSW 19:51:31 55° WNW 19:57:39 10° N night (unlit)
22 Apr - 06:56:20 10° N 07:02:03 62° ENE 07:07:50 10° SSE daylight
22 Apr - 18:09:51 10° SSE 18:14:41 23° ESE 18:19:28 10° ENE night (unlit)
22 Apr - 19:55:11 10° SW 20:00:47 32° WNW 20:06:18 10° N night (unlit)
23 Apr - 07:05:31 10° NNW 07:11:17 76° WSW 07:17:09 10° SSE daylight
23 Apr - 18:18:07 10° S 18:23:58 38° ESE 18:29:44 10° NE night (unlit)
23 Apr - 20:05:44 10° WSW 20:10:04 19° WNW 20:14:22 10° NNW night (unlit)
24 Apr - 05:31:37 10° NE 05:34:28 14° ENE 05:37:19 10° E daylight
24 Apr - 07:15:05 10° NW 07:20:32 43° WSW 07:26:04 10° S daylight
24 Apr - 18:26:55 10° S 18:33:13 65° ESE 18:39:27 10° NNE night (unlit)
24 Apr - 20:18:26 10° WNW 20:19:23 10° WNW 20:20:20 10° WNW night (unlit)
25 Apr - 05:39:07 10° NNE 05:43:45 25° ENE 05:48:25 10° ESE daylight
25 Apr - 07:25:11 10° WNW 07:29:47 25° WSW 07:34:29 10° SSW daylight
25 Apr - 18:36:07 10° SSW 18:42:29 77° WNW 18:48:46 10° NNE night (unlit)
26 Apr - 05:47:33 10° N 05:53:00 43° ENE 05:58:31 10° SE daylight
26 Apr - 07:36:15 10° W 07:39:05 14° WSW 07:41:56 10° SW daylight
26 Apr - 17:01:56 10° SE 17:05:37 16° ESE 17:09:17 10° ENE visible
26 Apr - 18:45:42 10° SW 18:51:45 45° WNW 18:57:42 10° N night (unlit)
27 Apr - 05:56:28 10° NNW 06:02:15 76° ENE 06:08:06 10° SSE daylight
27 Apr - 17:09:39 10° SSE 17:14:56 27° ESE 17:20:08 10° NE visible
27 Apr - 18:55:47 10° SW 19:01:01 27° WNW 19:06:11 10° NNW visible
28 Apr - 06:05:46 10° NNW 06:11:29 62° WSW 06:17:17 10° S daylight
28 Apr - 17:18:08 10° S 17:24:12 46° ESE 17:30:10 10° NE visible
28 Apr - 19:06:42 10° WSW 19:10:18 16° WNW 19:13:53 10° NW visible
29 Apr - 04:31:01 10° NNE 04:34:41 17° ENE 04:38:22 10° ESE daylight
29 Apr - 06:15:31 10° NW 06:20:44 35° WSW 06:26:02 10° S daylight
29 Apr - 17:27:05 10° SSW 17:33:28 78° ESE 17:39:44 10° NNE visible
30 Apr - 04:38:57 10° N 04:43:57 30° ENE 04:49:00 10° SE daylight
30 Apr - 06:25:51 10° WNW 06:30:01 20° WSW 06:34:12 10° SSW daylight
30 Apr - 15:55:22 10° ESE 15:56:33 10° ESE 15:57:43 10° E daylight
30 Apr - 17:36:25 10° SSW 17:42:43 64° WNW 17:48:54 10° N visible
